TimePDT,TemperatureF,Dew PointF,Humidity,Sea Level PressureIn,VisibilityMPH,Wind Direction,Wind SpeedMPH,Gust SpeedMPH,PrecipitationIn,Events,Conditions,WindDirDegrees,DateUTC
12:56 AM,52.0,34.0,50,29.79,10.0,Calm,Calm,-,N/A,,Clear,0,2013-05-04 07:56:00
1:56 AM,50.9,32.9,50,29.77,10.0,Calm,Calm,-,N/A,,Clear,0,2013-05-04 08:56:00
2:56 AM,48.9,34.0,56,29.76,10.0,Calm,Calm,-,N/A,,Clear,0,2013-05-04 09:56:00
3:56 AM,43.9,32.9,65,29.76,10.0,Calm,Calm,-,N/A,,Clear,0,2013-05-04 10:56:00
4:56 AM,45.0,34.0,65,29.76,10.0,Calm,Calm,-,N/A,,Clear,0,2013-05-04 11:56:00
5:56 AM,47.8,37.9,69,29.77,10.0,Calm,Calm,-,N/A,,Clear,0,2013-05-04 12:56:00
6:56 AM,48.9,39.9,71,29.80,10.0,Calm,Calm,-,N/A,,Clear,0,2013-05-04 13:56:00
7:56 AM,59.9,45.0,58,29.80,10.0,Calm,Calm,-,N/A,,Clear,0,2013-05-04 14:56:00
8:56 AM,65.8,45.9,48,29.79,10.0,Calm,Calm,-,N/A,,Clear,0,2013-05-04 15:56:00
9:56 AM,70.9,43.9,38,29.78,10.0,WNW,4.6,-,N/A,,Clear,290,2013-05-04 16:56:00
10:56 AM,73.9,41.0,30,29.78,10.0,WNW,4.6,-,N/A,,Clear,300,2013-05-04 17:56:00
11:56 AM,77.0,50.9,40,29.75,10.0,West,11.5,-,N/A,,Clear,280,2013-05-04 18:56:00
12:56 PM,77.9,52.9,42,29.74,10.0,West,16.1,-,N/A,,Clear,270,2013-05-04 19:56:00
1:56 PM,77.0,52.9,43,29.72,10.0,West,15.0,20.7,N/A,,Partly Cloudy,270,2013-05-04 20:56:00
2:56 PM,77.9,52.9,42,29.70,10.0,West,16.1,24.2,N/A,,Clear,280,2013-05-04 21:56:00
3:56 PM,77.9,52.0,40,29.70,10.0,WNW,18.4,24.2,N/A,,Clear,290,2013-05-04 22:56:00
4:56 PM,73.9,52.9,48,29.70,10.0,WNW,16.1,23.0,N/A,,Clear,290,2013-05-04 23:56:00
5:56 PM,70.0,52.0,53,29.72,10.0,West,18.4,25.3,N/A,,Clear,270,2013-05-05 00:56:00
6:56 PM,65.8,52.0,61,29.74,10.0,WNW,12.7,19.6,N/A,,Clear,290,2013-05-05 01:56:00
7:56 PM,61.9,52.0,70,29.78,10.0,West,6.9,-,N/A,,Clear,280,2013-05-05 02:56:00
8:56 PM,59.0,52.0,78,29.81,10.0,North,5.8,-,N/A,,Clear,350,2013-05-05 03:56:00
9:56 PM,59.0,52.0,78,29.83,10.0,NW,4.6,-,N/A,,Clear,310,2013-05-05 04:56:00
10:56 PM,56.8,50.9,80,29.84,10.0,NNE,4.6,-,N/A,,Clear,20,2013-05-05 05:56:00
11:49 PM,55.4,51.8,88,29.86,9.0,North,3.5,-,N/A,,Overcast,360,2013-05-05 06:49:00
11:56 PM,56.8,52.0,84,29.85,9.0,Calm,Calm,-,N/A,,Overcast,0,2013-05-05 06:56:00